Weather History for Huron, SD

Change the Weather History Date:

Sunday, January 1, 2012

  Actual Average Record
Temperature  
Mean Temperature 27 °F 17 °F  
Max Temperature 33 °F 26 °F 59 °F (1998)
Min Temperature 20 °F 7 °F -33 °F (1885)
Degree Days  
Heating Degree Days 38 48  
Month to date heating degree days 38 48  
Since 1 July heating degree days 2722 3168  
Cooling Degree Days 0 0  
Month to date cooling degree days 0 0  
Year to date cooling degree days 0 0  
Moisture  
Dew Point 13 °F    
Average Humidity 57    
Maximum Humidity 78    
Minimum Humidity 43    
Precipitation  
Precipitation 0.00 in 0.02 in 0.95 in (1916)
Month to date precipitation 0.00 0.02  
Year to date precipitation 0.00 0.02  
Snow  
Snow 0.00 in 0.30 in 10.00 in (1916)
Month to date snowfall 0.0 0.3  
Since 1 July snowfall 5.9 16.6  
Snow Depth 0.00 in    
Sea Level Pressure  
Sea Level Pressure 30.42 in    
Wind  
Wind Speed 21 mph (NW)    
Max Wind Speed 41 mph    
Max Gust Speed 51 mph    
Visibility 10 miles    
Events      
T = Trace of Precipitation, MM = Missing Value Source: NWS Daily Summary

Daily Weather History Graph

Daily Weather History Graph

Search for Another Location

Airport:

Trip Planner

Search our weather history database for the weather conditions in past years. The results will help you decide how hot, cold, wet, or windy it might be!

Date:

Astronomy

Jan. 01, 2012 Rise Set
Actual Time 8:09 AM CST 5:03 PM CST
Civil Twilight 7:35 AM CST 5:37 PM CST
Nautical Twilight 6:59 AM CST 6:13 PM CST
Astronomical Twilight 6:23 AM CST 6:49 PM CST
Moon 12:01 PM CST (1/1) 12:56 AM CST (1/1)
Length of Visible Light 10h 01m
Length of Day
8h 54m
First Quarter, 55% of the Moon is Illuminated
Jan 1
First Quarter
Jan 9
Full
Jan 16
Last Quarter
Jan 23
New
Jan 30
First Quarter

Hourly Weather History & Observations

Time (CST) Temp. Windchill Dew Point Humidity Pressure Visibility Wind Dir Wind Speed Gust Speed Precip Events Conditions
12:55 AM 28.9 °F 17.3 °F 21.9 °F 75% 30.17 in 10.0 mi NW 16.1 mph 23.0 mph N/A   Clear
1:55 AM 27.0 °F 18.7 °F 21.0 °F 78% 30.18 in 10.0 mi NW 8.1 mph - N/A   Clear
2:55 AM 25.0 °F 14.8 °F 19.0 °F 78% 30.21 in 10.0 mi NW 10.4 mph - N/A   Clear
3:55 AM 28.0 °F 16.5 °F 18.0 °F 66% 30.23 in 10.0 mi WNW 15.0 mph 23.0 mph N/A   Clear
4:55 AM 27.0 °F 13.9 °F 16.0 °F 63% 30.24 in 10.0 mi WNW 18.4 mph 26.5 mph N/A   Scattered Clouds
5:55 AM 28.0 °F 16.5 °F 15.1 °F 58% 30.27 in 10.0 mi NW 15.0 mph - N/A   Overcast
6:55 AM 28.9 °F 15.1 °F 12.0 °F 49% 30.29 in 10.0 mi WNW 23.0 mph 33.4 mph N/A   Overcast
7:55 AM 28.0 °F 14.9 °F 12.0 °F 51% 30.30 in 10.0 mi WNW 19.6 mph 28.8 mph N/A   Partly Cloudy
8:55 AM 30.0 °F 15.7 °F 10.9 °F 45% 30.34 in 10.0 mi NW 26.5 mph 35.7 mph N/A   Clear
9:55 AM 30.0 °F 14.7 °F 10.0 °F 43% 30.38 in 10.0 mi NW 31.1 mph 41.4 mph N/A   Clear
10:55 AM 30.0 °F 14.5 °F 10.0 °F 43% 30.41 in 10.0 mi NW 32.2 mph 43.7 mph N/A   Partly Cloudy
11:55 AM 30.9 °F 15.9 °F 10.9 °F 43% 30.41 in 10.0 mi NW 31.1 mph 41.4 mph N/A   Mostly Cloudy
12:55 PM 30.0 °F 15.7 °F 12.0 °F 47% 30.43 in 10.0 mi NNW 26.5 mph 33.4 mph N/A   Overcast
1:55 PM 32.0 °F 17.4 °F 12.0 °F 44% 30.44 in 10.0 mi NNW 31.1 mph 40.3 mph N/A   Mostly Cloudy
2:55 PM 32.0 °F 17.6 °F 12.0 °F 44% 30.47 in 10.0 mi NW 29.9 mph 39.1 mph N/A   Clear
3:55 PM 30.9 °F 17.2 °F 12.0 °F 46% 30.51 in 10.0 mi NW 25.3 mph 38.0 mph N/A   Clear
4:55 PM 28.9 °F 15.4 °F 12.0 °F 49% 30.54 in 10.0 mi NW 21.9 mph 32.2 mph N/A   Clear
5:55 PM 26.1 °F 14.0 °F 12.9 °F 58% 30.57 in 10.0 mi NW 15.0 mph - N/A   Clear
6:55 PM 24.1 °F 11.5 °F 12.9 °F 62% 30.59 in 10.0 mi NW 15.0 mph - N/A   Clear
7:55 PM 24.1 °F 11.5 °F 12.0 °F 60% 30.61 in 10.0 mi NW 15.0 mph - N/A   Clear
8:55 PM 24.1 °F 9.4 °F 12.0 °F 60% 30.62 in 10.0 mi NW 20.7 mph 26.5 mph N/A   Clear
9:55 PM 21.9 °F 6.9 °F 12.0 °F 66% 30.63 in 10.0 mi NW 19.6 mph - N/A   Clear
10:55 PM 19.9 °F 5.2 °F 10.9 °F 68% 30.65 in 10.0 mi WNW 17.3 mph - N/A   Clear
11:55 PM 19.9 °F 5.7 °F 10.0 °F 65% 30.65 in 10.0 mi WNW 16.1 mph - N/A   Clear